Location: Brownlee
(50.7397°N, 106.0159°W)
Time: 17:12:08
(UTC+00:00)

Envisat - Visible Passes

Search period start: 30 November 2023 00:00
Search period end: 10 December 2023 00:00
Orbit: 762 x 764 km, 98.3° (Epoch: 30 November)

Date Brightness Start Highest point End Pass type
(mag) Time Alt. Az. Time Alt. Az. Time Alt. Az.
30 Nov 5.4 11:26:05 10° N 11:26:29 12° N 11:26:29 12° N visible
01 Dec 5.2 12:28:45 10° NNW 12:28:51 10° NNW 12:28:51 10° NNW visible
02 Dec 5.3 11:50:50 10° N 11:51:04 11° N 11:51:04 11° N visible
03 Dec 5.6 11:13:16 10° N 11:13:17 10° N 11:13:17 10° N visible
